Location: Nijmegen RU
(51.8233°N, 354.1314°E)
Time: 17:55:53
(UTC+02:00)

Envisat - Pass Details

Date: 02 March 2019
Orbit: 764 x 766 km, 98.1° (Epoch: 15 October)

Event Time Altitude Azimuth Distance (km) Brightness Sun altitude
Rises 20:21:44 0° 180° (S) 3,219 6.2 -12.7°
Reaches altitude 10° 20:24:06 10° 186° (S) 2,297 5.5 -13.0°
Maximum altitude 20:29:00 49° 261° (W) 990 4.1 -13.8°
Drops below altitude 10° 20:33:56 10° 336° (NNW) 2,314 5.9 -14.6°
Sets 20:36:20 0° 342° (NNW) 3,245 6.6 -14.9°
